Race Coverage Navigation

TS # 22 / Walsh, CO  2019

 


TS STATS
TS Distance 68.35 
Total Distance 1340.66 
Miles To Go 1729.62 
TS Climbing 1291 
Total Climbing
TS  Elevation
TS  Net Elevation 2042 
Map Filename Open Map 
Directions Filename  
Latitude 37.39 
Longitude -102.28 
Google Map  TimeStation Map 


TS Arrival Data
Arr Ord  #/Name Arrival DT TS Dst Avg This TS Avg Overall
 1 377 - Christoph Strasser  06/14/2019 21:39 68.35  18.07  17.41 
 2 279 - Marko Baloh  06/15/2019 10:09 68.35  12.7  14.98 
 3 609 - Jakob Olsen  06/15/2019 12:15 68.35  17.91  14.59 
 4 288 - Dave Haase  06/15/2019 13:00 68.35  16.74  14.51 
 5 617 - SOLO.kiwi (Craig Harper)  06/15/2019 17:08 68.35  15.36  13.84 
 6 529 - Isa Pulver  06/15/2019 18:59 68.35  12.94  13.56 
 7 612 - Markus K. Brandl  06/15/2019 22:23 68.35  14.14  13.13 
 8 329 - Peter Oyler  06/16/2019 1:03 68.35  11.68  12.84 
 9 623 - Ultra Paka Racing Team (Daniel Polman)  06/16/2019 4:10 68.35  12.47  12.41 
 10 622 - Thomas Odom-Team Kyle Pease Foundation  06/16/2019 4:12 68.35  8.1  12.41 
 11 416 - Leah Goldstein  06/16/2019 5:45 68.35  9.2  12.23 
 12 603 - Alan Bradley  06/16/2019 8:15 68.35  17.91  11.98 
 13 615 - Philipp Amhof  06/16/2019 8:27 68.35  16.08  11.95 
 14 367 - Daniela Genovesi  06/16/2019 9:42 68.35  8.2  11.8 
 15 568 - Alexandra Meixner  06/16/2019 11:02 68.35  14.49  11.66 
 16 442 - Joe Barr  06/16/2019 12:30 68.35  18.23  11.56 
 17 611 - Marcelo Soares " MIXIRICA "  06/16/2019 12:53 68.35  13.95  11.5 
 18 604 - Chieko Ozawa  06/16/2019 13:02 68.35  7.9  11.46 
 19 559 - Team Martin RAAM 2019 (Martin Bergmeister)  06/16/2019 13:45 68.35  16.6  11.43 
 20 411 - Geoff Brunner  06/16/2019 15:32 68.35  15.19  11.27 
 21 510 - John C. Tarlton  06/16/2019 16:41 68.35  13.19  11.15 
 22 610 - Kabir Rachure  06/16/2019 20:45 68.35  13.1  10.78 
 23 399 - Valerio Zamboni  06/17/2019 0:26 68.35  11.02  10.48 
 24 424 - Team i RON man Veterans supporting Veterans  06/17/2019 5:42 68.35  8.73  10.07 
 25 539 - Kari Rouvinen  06/17/2019 6:51 68.35  6.61  9.98 
 26 618 - GREGORY ROBINSON  06/17/2019 8:03 68.35  9.09  9.87 
 27 527 - TALABARDON (Herve Talabardon)  06/17/2019 8:24 68.35  8.42  9.86 
 28 608 - Elin Starup  06/17/2019 10:07 68.35  7.77  9.71 
 29 161 - Seana Hogan  06/17/2019 10:51 68.35  12.39  9.66 
 30 605 - Christian Echavarria  06/17/2019 16:36 68.35  14.14  9.3 
 31 607 - Sabine Bird (Team Bean)  06/17/2019 19:03 68.35  7.52  9.12 
 32 T411 - team alpha - tischlerei groemmer  06/18/2019 2:51 68.35  27.16  22.53 
 33 T800 - Backstedt Racing Project 14  06/18/2019 3:33 68.35  26.98  22.32 
 34 T401 - Data Techniques powered by Networks Centre  06/18/2019 6:07 68.35  25.31  21.3 
 35 T404 - Gentlemen of speed  06/18/2019 6:34 68.35  25.16  21.17 
 36 T201 - EAT WELL  06/18/2019 10:24 68.35  24.27  19.9 
 37 T805 - Team Oceanside  06/18/2019 10:54 68.35  24.7  19.91 
 38 T807 - Team ZOE International  06/18/2019 11:47 68.35  24.85  19.66 
 39 T407 - Julian Becker   06/18/2019 11:49 68.35  23.84  19.56 
 40 T412 - Team Aspect  06/18/2019 13:05 68.35  24.56  19.23 
 41 T802 - Scorchers  06/18/2019 13:13 68.35  26.12  19.23 
 42 T416 - Team Rotary Raams Polio  06/18/2019 13:46 68.35  24.41  19.06 
 43 T408 - Radeln-fuer-Kinder (Cycling-for-Kids)  06/18/2019 14:36 68.35  24.12  18.8 
 44 T804 - Team FSHD Skyland Trail  06/18/2019 14:45 68.35  23.57  18.83 
 45 T400 - Cantastic4  06/18/2019 15:08 68.35  23.84  18.63 
 46 T406 - Operation Walk Midwest  06/18/2019 15:47 68.35  21.14  18.49 
 47 T808 - Antonia's Friends 2019  06/18/2019 16:14 68.35  20.4  18.46 
 48 T418 - The Opportunists  06/18/2019 18:46 68.35  20.92  17.8 
 49 T410 - Soap-Aid  06/18/2019 20:40 68.35  17.45  17.34 
 50 T406 - Operation Walk Midwest  06/18/2019 20:53 68.35  21.14  18.49 
 51 T403 - EKJ Denmark  06/18/2019 21:14 68.35  18.15  17.18 
 52 T414 - Brazil Nuts  06/18/2019 21:38 68.35  17.99  17.14 
 53 T202 - Integra Medical - BAA Racing  06/18/2019 21:52 68.35  17.53  17.01 
 54 T803 - Team EndoPark  06/18/2019 23:19 68.35  14.97  16.8 
 55 T206 - Project Linear Acceleration  06/18/2019 23:45 68.35  16.21  16.62 
 56 T405 - High Rollers  06/18/2019 23:47 68.35  15.13  16.65 
 57 T415 - TEAM FIRE VELO 935  06/19/2019 0:28 68.35  19.72  16.54 
 58 T204 - Lucan CRC  06/19/2019 1:20 68.35  18.56  16.3 
 59 T413 - TEAM BRASIL - SKIPPER  06/19/2019 2:14 68.35  18.31  16.18 
 60 T402 - EA/WFP RAAM Team  06/19/2019 2:46 68.35  25.16  16.04 
 61 T806 - Team SuperMarrow  06/19/2019 2:53 68.35  22.17  16.09 
 62 T801 - Mind Over Matter  06/19/2019 4:32 68.35  20  15.77 
 63 T417 - Team4RAAM 2019 powered by TGW Living Logistics  06/19/2019 7:35 68.35  13.72  15.21 
 64 T200 - AIR RELAX GoPro TEAM BRASIL  06/19/2019 8:04 68.35  15.65  15.05 
 65 T207 - Team Life Time  06/19/2019 9:34 68.35  16.88  14.82 
 66 T409 - Serpentine Golden Girls  06/19/2019 11:37 68.35  18.31  14.53 
 67 T203 - JPsDuo  06/19/2019 14:17 68.35  18.56  14.08 
 68 T210 - Bike Wine Team  06/19/2019 18:31 68.35  17.75  13.49 
 69 T205 - Prevent Breast Cancer powered by Endomag  06/19/2019 20:41 68.35  18.47  13.2